Location: Colossi of Memnon
(25.7167°N, 32.6167°E)
Time: 15:31:41
(UTC+00:00)

N. Korean satellite - Visible Passes

Search period start: 20 September 2021 00:00
Search period end: 30 September 2021 00:00
Orbit: 448 x 498 km, 97.3° (Epoch: 19 September)

Date Brightness Start Highest point End Pass type
(mag) Time Alt. Az. Time Alt. Az. Time Alt. Az.
20 Sep 7.0 02:49:09 10° NNE 02:52:39 64° E 02:56:12 10° S visible
21 Sep 9.1 02:22:02 10° NE 02:24:54 23° E 02:27:48 10° SSE visible
23 Sep 6.5 02:59:03 10° N 03:02:37 86° WNW 03:06:13 10° SSW visible
24 Sep 8.5 02:31:38 10° NNE 02:34:52 32° E 02:38:09 10° SSE visible
25 Sep 9.9 02:05:20 10° ENE 02:07:03 13° E 02:08:47 10° SE visible
26 Sep 6.6 03:08:59 10° N 03:12:31 58° WNW 03:16:05 10° SSW visible
27 Sep 7.7 02:41:18 10° NNE 02:44:47 47° E 02:48:17 10° S visible
28 Sep 9.6 02:14:25 10° NE 02:16:58 18° E 02:19:32 10° SE visible
